Home > Weather > Cham > Past weeks

Flag for Switzerland Past Weather in Cham, Zug, Switzerland — Yesterday and Last 2 Weeks

Now
63 °F

Mild.


Feels Like: 63 °F
Forecast: 57 / 71 °F
Wind: 7 mph from Northeast

Location: Zuerich-Fluntern

Current Time: May 29, 2016 at 12:17:40 AM

Latest Report: May 28, 2016 at 11:00 PM


Visibility: N/A

Pressure: 29.75 "Hg

Humidity: 89%

Dew Point: 60 °F

Location of ChamLocation

Past Weather in Cham — Graph

°F

Cham Temperature Yesterday

Maximum temperature yesterday: 71 °F (at 6:00 PM)
Minimum temperature yesterday: 59 °F (at 6:00 AM)
Average temperature yesterday: 64 °F

High & Low Weather Summary for the Past Weeks

 TemperatureHumidityPressure
High79 °F (May 27, 6:00 PM)97% (May 13, 11:00 PM)30.23 "Hg (May 13, 11:00 PM)
Low42 °F (May 23, 10:00 AM)28% (May 21, 4:00 PM)29.67 "Hg (May 13, 11:00 PM)
Average55 °F75%29.99 "Hg
* Reported May 13 11:00 PM — May 28 11:00 PM, Cham, Weather by CustomWeather, © 2016

Note: Actual official high and low records may vary slightly from our data, if they occured in-between our weather recording intervals... More about our weather records

Advertising

Cham Weather History for the Previous 24 Hours

Scroll right to see more
 ConditionsComfort  
Time TempWeatherWind HumidityBarometerVisibility
11:00 PM
Sat, May 28
63 °FMild.7 mph89%29.75 "HgN/A
10:00 PM63 °FMild.9 mph89%29.76 "HgN/A
9:00 PM65 °FMild.5 mph80%29.78 "HgN/A
8:00 PM68 °FPartly sunny.6 mph73%29.76 "HgN/A
7:00 PM69 °FMild.1 mph66%29.77 "HgN/A
6:00 PM71 °FMild.3 mph61%29.78 "HgN/A
5:00 PM71 °FMild.3 mph63%29.81 "HgN/A
4:00 PM69 °FMild.2 mph71%29.83 "HgN/A
3:00 PM68 °FMild.2 mph64%29.86 "HgN/A
2:00 PM66 °FPartly sunny.5 mph81%29.89 "HgN/A
1:00 PM63 °FMild.3 mph83%29.91 "HgN/A
12:00 PM63 °FMild.6 mph81%29.92 "HgN/A
11:00 AM63 °FMild.5 mph83%29.94 "HgN/A
10:00 AM63 °FMild.6 mph89%29.93 "HgN/A
9:00 AM60 °FCool.3 mph96%29.96 "HgN/A
8:00 AM60 °FCool.3 mph96%29.94 "HgN/A
7:00 AM60 °FCool.2 mph95%29.96 "HgN/A
6:00 AM59 °FCool.6 mph95%29.97 "HgN/A
5:00 AM60 °FCool.1 mph95%29.99 "HgN/A
4:00 AM60 °FCool.5 mph94%30.00 "HgN/A
3:00 AM61 °FCool.2 mph90%29.95 "HgN/A
2:00 AM62 °FCool.2 mph89%29.92 "HgN/A
1:00 AM62 °FCool.1 mph87%29.93 "HgN/A
12:00 AM62 °FMild.2 mph82%29.92 "HgN/A
Weather by CustomWeather, © 2016

See weather overviewHow to use our weather pages